FW0896 Weather Reports


Display with metric or nautical units.
time (UTC)temp
F
wind
direction
speed
MPH
gust
MPH
rain 1hr
in
rain 24hr
in
rain mn
in
humidity
%
barometer
mb
20260906180104 69 131 3.0 7.0 0.00 0.00 0.00 93 1017.4
20260906174556 69 126 2.0 6.0 0.00 0.00 0.00 93 1017.7
20260906173049 69 127 1.0 6.0 0.00 0.00 0.00 93 1018.4
20260906171556 69 134 2.0 6.0 0.00 0.00 0.00 93 1018.2
20260906170058 69 155 1.0 4.0 0.00 0.00 0.00 93 1018.4
20260906164548 69 132 1.0 4.0 0.00 0.00 0.00 93 1018.4
20260906163047 69 147 2.0 5.0 0.00 0.00 0.00 93 1018.5
20260906161545 69 110 2.0 6.0 0.00 0.00 0.00 93 1018.3
20260906160044 69 148 1.0 4.0 0.00 0.00 0.00 93 1018.3
20260906154543 69 124 2.0 5.0 0.00 0.00 0.00 93 1018.2
20260906153041 69 111 2.0 6.0 0.00 0.00 0.00 94 1018.0
20260906151541 69 127 1.0 5.0 0.00 0.00 0.00 94 1018.0
20260906150039 69 141 2.0 4.0 0.00 0.00 0.00 94 1018.0
20260906144538 69 143 1.0 3.0 0.00 0.00 0.00 94 1018.1
20260906143038 69 141 1.0 3.0 0.00 0.00 0.00 95 1018.1
20260906141538 69 127 1.0 4.0 0.00 0.00 0.00 95 1018.0
20260906140034 69 162 1.0 4.0 0.00 0.00 0.00 95 1017.9
20260906134533 69 153 2.0 4.0 0.00 0.00 0.00 96 1017.8
20260906133033 69 170 1.0 4.0 0.00 0.00 0.00 96 1017.8
20260906131541 69 149 2.0 3.0 0.00 0.00 0.00 96 1018.0
20260906130034 68 170 1.0 4.0 0.00 0.00 0.00 96 1017.8
20260906124529 68 161 1.0 4.0 0.00 0.00 0.00 96 1017.5
20260906123028 68 130 1.0 4.0 0.00 0.00 0.00 95 1017.4
20260906121527 68 139 2.0 3.0 0.00 0.00 0.00 95 1017.2
20260906120025 68 162 1.0 3.0 0.00 0.00 0.00 95 1017.1
20260906114524 67 169 1.0 3.0 0.00 0.00 0.00 95 1017.0
20260906113023 67 169 1.0 3.0 0.00 0.00 0.00 95 1016.9
20260906111520 68 176 1.0 3.0 0.00 0.00 0.00 95 1016.7
20260906110019 68 150 2.0 3.0 0.00 0.00 0.00 95 1016.6
20260906104532 68 148 1.0 3.0 0.00 0.00 0.00 94 1016.7
20260906103017 68 143 1.0 3.0 0.00 0.00 0.00 94 1016.8
20260906101515 68 165 2.0 3.0 0.00 0.00 0.00 94 1016.8
20260906100014 68 151 1.0 4.0 0.00 0.00 0.00 94 1016.6
20260906094532 68 148 1.0 3.0 0.00 0.00 0.00 94 1016.6
20260906093016 68 120 1.0 3.0 0.00 0.00 0.00 94 1016.4
20260906091511 68 169 1.0 3.0 0.00 0.00 0.00 94 1016.2
20260906090008 69 181 0.0 3.0 0.00 0.00 0.00 94 1016.2
20260906084507 69 162 1.0 3.0 0.00 0.00 0.00 95 1016.1
20260906083014 69 165 2.0 4.0 0.00 0.00 0.00 95 1015.8
20260906081504 69 158 1.0 3.0 0.00 0.00 0.00 95 1015.7
20260906080004 69 172 1.0 3.0 0.00 0.00 0.00 95 1015.8
20260906074503 69 134 1.0 4.0 0.00 0.00 0.00 95 1015.8
20260906073001 69 121 3.0 7.0 0.00 0.00 0.00 95 1015.9
20260906071603 69 120 2.0 4.0 0.00 0.00 0.00 95 1016.1
20260906070100 69 117 1.0 3.0 0.00 0.00 0.00 95 1016.2
20260906064559 70 123 1.0 4.0 0.00 0.00 0.00 96 1016.4
20260906063058 69 119 1.0 3.0 0.00 0.00 0.00 96 1016.2
20260906061559 69 103 1.0 3.0 0.00 0.00 0.00 95 1016.3
20260906060056 69 109 3.0 4.0 0.00 0.00 0.00 96 1016.3
20260906054553 69 84 2.0 6.0 0.00 0.00 0.00 95 1016.3
20260906053054 70 70 2.0 8.0 0.00 0.00 0.00 95 1016.3
20260906051557 70 100 3.0 7.0 0.00 0.00 0.00 95 1016.1
20260906050047 70 86 3.0 7.0 0.00 0.00 0.00 95 1016.1
20260906044546 70 98 3.0 5.0 0.00 0.00 0.00 95 1015.8
20260906043046 71 89 4.0 9.0 0.00 0.00 0.00 95 1016.1
20260906041552 71 90 2.0 5.0 0.00 0.00 0.00 95 1016.1
20260906040045 71 93 1.0 4.0 0.00 0.00 0.00 94 1015.9
20260906034548 71 86 2.0 6.0 0.00 0.00 0.00 94 1016.1
20260906033045 71 89 2.0 4.0 0.00 0.00 0.00 94 1016.2
20260906031543 71 89 1.0 3.0 0.00 0.00 0.00 94 1016.3
20260906030043 72 88 1.0 3.0 0.00 0.00 0.00 93 1016.3
20260906024558 72 115 0.0 3.0 0.00 0.00 0.00 93 1015.9
20260906023042 72 115 1.0 3.0 0.00 0.00 0.00 92 1016.0
20260906021541 72 115 0.0 0.0 0.00 0.00 0.00 92 1015.6
20260906020046 72 115 0.0 0.0 0.00 0.00 0.00 92 1015.9
20260906014551 73 115 0.0 0.0 0.00 0.00 0.00 91 1015.6
20260906013043 73 115 0.0 0.0 0.00 0.00 0.00 91 1015.4
20260906011541 73 115 0.0 0.0 0.00 0.00 0.00 90 1015.3
20260906010037 74 115 0.0 0.0 0.00 0.00 0.00 89 1015.1
20260906004541 74 114 0.0 0.0 0.00 0.00 0.00 88 1015.0
20260906003047 75 113 0.0 1.0 0.00 0.00 0.00 88 1014.9
20260906001534 75 113 0.0 2.0 0.00 0.00 0.00 87 1014.7
20260906000033 75 110 0.0 2.0 0.00 0.00 0.00 87 1014.7
20260905234533 75 111 0.0 2.0 0.00 0.00 0.00 87 1014.6
20260905233033 75 104 2.0 5.0 0.00 0.00 0.00 87 1014.5
20260905231538 76 85 2.0 5.0 0.00 0.00 0.00 86 1014.4
20260905230032 76 86 0.0 4.0 0.00 0.00 0.00 86 1014.4
20260905224534 77 105 0.0 5.0 0.00 0.00 0.00 85 1014.5
20260905223031 77 98 2.0 6.0 0.00 0.00 0.00 84 1014.0
20260905221530 78 86 3.0 6.0 0.00 0.00 0.00 86 1013.9
20260905220030 79 97 1.0 6.0 0.00 0.00 0.00 86 1013.7
20260905214530 79 102 3.0 5.0 0.00 0.00 0.00 86 1013.7
20260905213039 79 98 2.0 5.0 0.00 0.00 0.00 85 1014.1
20260905211533 80 70 3.0 5.0 0.00 0.00 0.00 83 1014.2
20260905210027 81 65 0.0 4.0 0.00 0.00 0.00 83 1014.3
20260905204527 81 98 2.0 5.0 0.00 0.00 0.00 83 1014.5
20260905203023 80 104 0.0 7.0 0.00 0.00 0.00 86 1014.4
20260905201520 78 97 4.0 9.0 0.00 0.00 0.00 87 1013.5
20260905200018 78 98 3.0 8.0 0.00 0.00 0.00 90 1013.4
20260905194514 77 80 3.0 11.0 0.00 0.00 0.00 91 1013.3
20260905193013 76 70 5.0 12.0 0.00 0.00 0.00 91 1013.1
20260905191512 76 63 5.0 9.0 0.00 0.00 0.00 91 1013.4
20260905190012 76 82 1.0 9.0 0.00 0.00 0.00 90 1014.6
20260905184511 76 32 4.0 8.0 0.00 0.00 0.00 91 1014.3
20260905183008 75 86 4.0 9.0 0.00 0.00 0.00 92 1014.1
20260905181509 75 79 3.0 10.0 0.00 0.00 0.00 92 1014.4